When you browse on this site, cookies collect data to enhance your experience and personalize the content and advertising you see.
Visit our Privacy Policy to learn more. By continuing to use the site, you agree to this use of cookies and data.
  • En España
  • Lista de países
  • Para 7 días
  • Temperatura del agua
  • El tiempo en el mapa
  • Informadores
  • user-avatar
    Iniciar sesión

    Tiempo cada hora Durham

    Hoy, 23 Septiembre, Lunes

    Tiempo Temperatura Precipitaciones Viento Presión Humedad
    00:00 +16°C° 0.1 mm 2 mps 747 mmHg 95%
    01:00 +15°C° 0 mm 2 mps 747 mmHg 94%
    02:00 +15°C° 0 mm 2 mps 747 mmHg 94%
    03:00 +14°C° 0 mm 2 mps 747 mmHg 94%
    04:00 +14°C° 0 mm 2 mps 747 mmHg 94%
    05:00 +14°C° 0 mm 2 mps 748 mmHg 93%
    06:00 +12°C° 0 mm 3 mps 748 mmHg 93%
    07:00 +13°C° 0 mm 3 mps 748 mmHg 89%
    08:00 +14°C° 0 mm 3 mps 748 mmHg 85%
    09:00 +15°C° 0 mm 4 mps 749 mmHg 81%
    10:00 +17°C° 0 mm 4 mps 749 mmHg 77%
    11:00 +17°C° 0 mm 4 mps 749 mmHg 72%
    12:00 +17°C° 0 mm 5 mps 750 mmHg 68%
    13:00 +18°C° 0 mm 4 mps 749 mmHg 66%
    14:00 +18°C° 0 mm 4 mps 749 mmHg 64%
    15:00 +18°C° 0 mm 4 mps 749 mmHg 62%
    16:00 +17°C° 0 mm 4 mps 749 mmHg 67%
    17:00 +17°C° 0 mm 4 mps 749 mmHg 71%
    18:00 +15°C° 0 mm 4 mps 749 mmHg 75%
    19:00 +15°C° 0.1 mm 5 mps 748 mmHg 79%
    20:00 +14°C° 0.1 mm 5 mps 748 mmHg 82%
    21:00 +14°C° 0.1 mm 6 mps 748 mmHg 86%
    22:00 +14°C° 0.1 mm 6 mps 748 mmHg 87%
    23:00 +15°C° 0.1 mm 6 mps 747 mmHg 87%

    Mañana, 24 Septiembre, Martes

    Tiempo Temperatura Precipitaciones Viento Presión Humedad
    00:00 +15°C° 0.1 mm 6 mps 747 mmHg 88%
    01:00 +14°C° 0.3 mm 6 mps 747 mmHg 90%
    02:00 +14°C° 0.3 mm 5 mps 746 mmHg 91%
    03:00 +14°C° 0.3 mm 5 mps 746 mmHg 93%
    04:00 +14°C° 0 mm 5 mps 745 mmHg 94%
    05:00 +14°C° 0 mm 4 mps 745 mmHg 94%
    06:00 +15°C° 0 mm 4 mps 745 mmHg 94%
    07:00 +15°C° 0 mm 4 mps 744 mmHg 93%
    08:00 +16°C° 0 mm 5 mps 744 mmHg 91%
    09:00 +16°C° 0 mm 5 mps 743 mmHg 89%
    10:00 +16°C° 0.7 mm 5 mps 743 mmHg 90%
    11:00 +16°C° 0.7 mm 5 mps 742 mmHg 91%
    12:00 +17°C° 0.7 mm 4 mps 742 mmHg 92%
    13:00 +17°C° 3.7 mm 4 mps 742 mmHg 93%
    14:00 +16°C° 3.7 mm 3 mps 741 mmHg 94%
    15:00 +16°C° 3.7 mm 2 mps 741 mmHg 95%
    16:00 +16°C° 0.8 mm 3 mps 741 mmHg 94%
    17:00 +14°C° 0.8 mm 4 mps 741 mmHg 92%
    18:00 +14°C° 0.8 mm 5 mps 741 mmHg 90%
    19:00 +14°C° 0.4 mm 5 mps 741 mmHg 90%
    20:00 +14°C° 0.4 mm 5 mps 741 mmHg 90%
    21:00 +13°C° 0.4 mm 4 mps 742 mmHg 90%
    22:00 +13°C° 0.2 mm 4 mps 742 mmHg 90%
    23:00 +13°C° 0.2 mm 4 mps 741 mmHg 91%

    Pasado mañana, 25 Septiembre, Miércoles

    Tiempo Temperatura Precipitaciones Viento Presión Humedad
    00:00 +13°C° 0.2 mm 3 mps 741 mmHg 91%
    01:00 +13°C° 0 mm 3 mps 741 mmHg 92%
    02:00 +12°C° 0 mm 3 mps 742 mmHg 93%
    03:00 +13°C° 0 mm 2 mps 742 mmHg 94%
    04:00 +13°C° 0 mm 2 mps 742 mmHg 95%
    05:00 +13°C° 0 mm 2 mps 742 mmHg 95%
    06:00 +12°C° 0 mm 2 mps 742 mmHg 96%
    07:00 +13°C° 0 mm 2 mps 742 mmHg 94%
    08:00 +14°C° 0 mm 2 mps 742 mmHg 92%
    09:00 +15°C° 0 mm 2 mps 743 mmHg 90%
    10:00 +15°C° 0 mm 2 mps 743 mmHg 87%
    11:00 +16°C° 0 mm 2 mps 743 mmHg 85%
    12:00 +16°C° 0 mm 2 mps 744 mmHg 82%
    13:00 +17°C° 0 mm 2 mps 743 mmHg 81%
    14:00 +17°C° 0 mm 2 mps 743 mmHg 79%
    15:00 +17°C° 0 mm 2 mps 743 mmHg 78%
    16:00 +17°C° 0.1 mm 2 mps 743 mmHg 81%
    17:00 +16°C° 0.1 mm 2 mps 744 mmHg 84%
    18:00 +14°C° 0.1 mm 3 mps 744 mmHg 88%
    19:00 +14°C° 0 mm 3 mps 743 mmHg 89%
    20:00 +13°C° 0 mm 3 mps 743 mmHg 90%
    21:00 +13°C° 0 mm 3 mps 743 mmHg 92%
    22:00 +13°C° 0.1 mm 3 mps 743 mmHg 92%
    23:00 +13°C° 0.1 mm 3 mps 742 mmHg 92%

    26 Septiembre, Jueves

    Tiempo Temperatura Precipitaciones Viento Presión Humedad
    00:00 +13°C° 0.1 mm 4 mps 741 mmHg 92%
    01:00 +13°C° 1.8 mm 4 mps 741 mmHg 94%
    02:00 +13°C° 1.8 mm 4 mps 741 mmHg 95%
    03:00 +13°C° 1.8 mm 4 mps 740 mmHg 96%
    04:00 +13°C° 0.3 mm 4 mps 740 mmHg 95%
    05:00 +13°C° 0.3 mm 4 mps 740 mmHg 93%
    06:00 +13°C° 0.3 mm 3 mps 740 mmHg 91%
    07:00 +14°C° 0.1 mm 4 mps 740 mmHg 88%
    08:00 +14°C° 0.1 mm 5 mps 740 mmHg 85%
    09:00 +15°C° 0.1 mm 5 mps 741 mmHg 81%
    10:00 +15°C° 0.1 mm 6 mps 741 mmHg 77%
    11:00 +15°C° 0.1 mm 6 mps 741 mmHg 74%
    12:00 +16°C° 0.1 mm 7 mps 742 mmHg 70%
    13:00 +16°C° 0 mm 7 mps 742 mmHg 70%
    14:00 +16°C° 0 mm 7 mps 742 mmHg 70%
    15:00 +16°C° 0 mm 7 mps 742 mmHg 70%
    16:00 +15°C° 0 mm 6 mps 742 mmHg 72%
    17:00 +15°C° 0 mm 6 mps 742 mmHg 74%
    18:00 +14°C° 0 mm 5 mps 742 mmHg 76%
    19:00 +14°C° 0 mm 5 mps 742 mmHg 78%
    20:00 +13°C° 0 mm 5 mps 742 mmHg 80%
    21:00 +12°C° 0 mm 5 mps 742 mmHg 82%
    22:00 +12°C° 0 mm 5 mps 742 mmHg 83%
    23:00 +12°C° 0 mm 5 mps 742 mmHg 83%

    27 Septiembre, Viernes

    Tiempo Temperatura Precipitaciones Viento Presión Humedad
    00:00 +10°C° 0 mm 5 mps 742 mmHg 84%
    01:00 +10°C° 0 mm 5 mps 742 mmHg 86%
    02:00 +10°C° 0 mm 5 mps 742 mmHg 87%
    03:00 +9°C° 0 mm 5 mps 742 mmHg 88%
    04:00 +9°C° 0 mm 5 mps 742 mmHg 89%
    05:00 +9°C° 0 mm 5 mps 742 mmHg 90%
    06:00 +9°C° 0 mm 5 mps 742 mmHg 90%
    07:00 +10°C° 0 mm 5 mps 742 mmHg 87%
    08:00 +11°C° 0 mm 6 mps 742 mmHg 83%
    09:00 +13°C° 0 mm 6 mps 742 mmHg 79%
    10:00 +12°C° 0.1 mm 7 mps 742 mmHg 79%
    11:00 +14°C° 0.1 mm 7 mps 741 mmHg 78%
    12:00 +13°C° 0.1 mm 8 mps 741 mmHg 77%
    13:00 +14°C° 0.8 mm 7 mps 740 mmHg 79%
    14:00 +14°C° 0.8 mm 7 mps 740 mmHg 80%
    15:00 +12°C° 0.8 mm 7 mps 740 mmHg 82%
    16:00 +12°C° 0.1 mm 7 mps 740 mmHg 83%
    17:00 +11°C° 0.1 mm 7 mps 740 mmHg 83%
    18:00 +11°C° 0.1 mm 7 mps 739 mmHg 84%
    19:00 +10°C° 0.1 mm 7 mps 740 mmHg 84%
    20:00 +10°C° 0.1 mm 6 mps 740 mmHg 85%
    21:00 +10°C° 0.1 mm 6 mps 740 mmHg 86%
    22:00 +10°C° 0 mm 6 mps 740 mmHg 86%
    23:00 +10°C° 0 mm 6 mps 740 mmHg 86%

    28 Septiembre, Sábado

    Tiempo Temperatura Precipitaciones Viento Presión Humedad
    00:00 +10°C° 0 mm 7 mps 740 mmHg 86%
    01:00 +10°C° 0 mm 7 mps 741 mmHg 85%
    02:00 +10°C° 0 mm 7 mps 741 mmHg 85%
    03:00 +10°C° 0 mm 7 mps 741 mmHg 84%
    04:00 +10°C° 0 mm 7 mps 741 mmHg 85%
    05:00 +10°C° 0 mm 7 mps 741 mmHg 85%
    06:00 +9°C° 0 mm 7 mps 741 mmHg 86%
    07:00 +10°C° 0 mm 7 mps 742 mmHg 84%
    08:00 +11°C° 0 mm 7 mps 742 mmHg 81%
    09:00 +11°C° 0 mm 8 mps 742 mmHg 78%
    10:00 +12°C° 0 mm 8 mps 743 mmHg 75%
    11:00 +13°C° 0 mm 8 mps 743 mmHg 72%
    12:00 +15°C° 0 mm 8 mps 743 mmHg 69%
    13:00 +13°C° 0.1 mm 8 mps 744 mmHg 70%
    14:00 +13°C° 0.1 mm 8 mps 744 mmHg 70%
    15:00 +13°C° 0.1 mm 8 mps 744 mmHg 71%
    16:00 +12°C° 0 mm 7 mps 744 mmHg 74%
    17:00 +12°C° 0 mm 7 mps 744 mmHg 77%
    18:00 +11°C° 0 mm 6 mps 745 mmHg 81%
    19:00 +10°C° 0 mm 6 mps 745 mmHg 82%
    20:00 +10°C° 0 mm 6 mps 745 mmHg 84%
    21:00 +10°C° 0 mm 5 mps 746 mmHg 86%
    22:00 +9°C° 0 mm 5 mps 746 mmHg 86%
    23:00 +9°C° 0 mm 5 mps 746 mmHg 87%
    Mostrar más